Tracking 35274 objects as of 11-Sep-2026
HD Live streaming from Space Station
objects crossing your sky now

FREGAT DEB


FREGAT DEB is no longer on orbit


NORAD ID: 45992
Int'l Code: 2011-037GT
Launch date: July 18, 2011
Source: Commonwealth of Independent States (former USSR) (CIS)
Launch site: TYURATAM MISSILE AND SPACE COMPLEX (TTMTR)
Decay date: 2020-11-28

Note: This is SATELLITE DEBRIS
Your satellite tracking list
Your tracking list is empty




NASA's NSSDC Master Catalog

Two Line Element Set (TLE):
1 45992U 11037GT  20329.07414188  .10945611  00000-0  57558+0 0  9996
2 45992  51.1770 218.9467 1099480  76.3422 295.7286 13.20521494 14537
Source of the keplerian elements: AFSPC